Regional Weather Roundup
Issued by NWS

Home | Current Version | Previous Version | Graphics & Text | Print | Product List | Glossary On
Versions: 1 2 3 4 5 6 7 8 9 10 11 12 13 14 15 16 17 18 19 20 21 22 23 24 25 26 27 28 29 30 31 32 33 34 35 36 37 38 39 40 41 42 43 44 45 46 47 48 49 50
088
ASUS43 KMKX 161320
RWRWI

WISCONSIN REGIONAL WEATHER ROUNDUP
NATIONAL WEATHER SERVICE MILWAUKEE/SULLIVAN WI
700 AM CST TUE JAN 16 2018

NOTE: "FAIR" INDICATES FEW OR NO CLOUDS BELOW 12,000 FEET WITH NO
SIGNIFICANT WEATHER AND/OR OBSTRUCTIONS TO VISIBILITY.

WIZ001-002-006>008-014>016-023>028-161400-
NORTHWEST WISCONSIN

CITY           SKY/WX    TMP DP  RH WIND       PRES   REMARKS
SUPERIOR ARPT  CLOUDY     1  -5  78 W6        30.66R WCI -11
ASHLAND        LGT SNOW  15  11  83 NW8       30.58S FOG     WCI   4
HAYWARD        CLOUDY    10   5  80 VRB3      30.56R
SIREN          FLURRIES   4  -1  80 NW6       30.63R WCI  -7
CUMBERLAND     CLOUDY     1  -2  85 NW6       30.57R WCI -10
RICE LAKE      CLOUDY     4   0  86 CALM      30.59R
CHETEK         CLOUDY     4   1  85 NW3       30.57R
LADYSMITH      LGT SNOW   9   6  88 NW9       30.53R WCI  -5
EAU CLAIRE     FLURRIES  -2  -3  96 CALM      30.56R
MENOMONIE      LGT SNOW   3  -1  84 W8        30.59R WCI -11
NEW RICHMOND   CLOUDY     3  -1  83 NW9       30.62R WCI -12
OSCEOLA        CLOUDY     4  -1  81 NW9       30.68R WCI -11
$$

WIZ003>005-009-010-017-018-161400-
NORTH CENTRAL WISCONSIN

CITY           SKY/WX    TMP DP  RH WIND       PRES   REMARKS
MANITOWISH WTR LGT SNOW  13  13  99 CALM      30.45S
ARBOR VITAE    FLURRIES   7   4  88 N3        30.44S
WOODRUFF       FLURRIES   7   4  88 N3        30.44S
RHINELANDER    FAIR       8   6  92 CALM      30.44R
EAGLE RIVER    FLURRIES  -1  -4  85 N3        30.42S
LAND O LAKES   LGT SNOW  15  13  92 N8        30.44S WCI   4
PHILLIPS       LGT SNOW   6   4  91 CALM      30.47S
TOMAHAWK       CLOUDY     2  -2  85 CALM      30.47R
MEDFORD        CLOUDY     9   6  87 N8        30.46R WCI  -3
MERRILL        FAIR      -3  -6  86 CALM      30.47R
$$

WIZ029-030-035-036-043>047-161400-
CENTRAL WISCONSIN

CITY           SKY/WX    TMP DP  RH WIND       PRES   REMARKS
WAUSAU         FLURRIES   4   2  91 NW7       30.45R WCI  -8
MOSINEE        PTCLDY     7   5  92 N8        30.47R WCI  -6
MARSHFIELD     MOCLDY     6   2  83 N9        30.45S WCI  -8
STEVENS POINT  FAIR       6   4  93 N7        30.47R WCI  -6
WAUPACA        FAIR       9   6  85 NW3       30.47S
WAUTOMA        FAIR       6   4  91 NW7       30.47  WCI  -6
WISC RAPIDS    FAIR       5   0  79 N5        30.49R WCI  -4
CAMP DOUGLAS   PTCLDY     3   0  85 W8        30.52R WCI -10
$$

WIZ011>013-019>022-031-037>040-048>050-161400-
NORTHEAST WISCONSIN

CITY           SKY/WX    TMP DP  RH WIND       PRES   REMARKS
ANTIGO         FLURRIES  -2  -4  90 CALM      30.43R
SHAWANO        FAIR       8   4  85 CALM      30.47S
OCONTO         CLOUDY     9   6  87 N3        30.47S
STURGEON BAY   FLURRIES   4   1  88 N9        30.46R WCI -10
GREEN BAY      FAIR       8   3  80 N7        30.47R WCI  -3
MANITOWOC      FAIR       9   6  88 NW13      30.43R WCI  -7
APPLETON       PTCLDY    10   5  79 N12       30.43R WCI  -4
CLINTONVILLE   FAIR      10   5  79 N5        30.47R WCI   2
OSHKOSH        FAIR      10   7  87 N9        30.45R WCI  -3
$$

WIZ032>034-041-042-053>061-161400-
SOUTHWEST WISCONSIN

CITY           SKY/WX    TMP DP  RH WIND       PRES   REMARKS
LA CROSSE      FAIR       5   0  79 N7        30.58R WCI  -7
SPARTA         FLURRIES  -1  -4  88 CALM      30.55R
VIROQUA        CLOUDY     6   5  94 NW9       30.48R WCI  -8
BOSCOBEL       FAIR      -1  -6  79 CALM      30.55R
PRAIRIE DU CHI FAIR       4  -2  77 NW5       30.56R WCI  -5
PLATTEVILLE    FAIR       5   3  91 NW10      30.49R WCI -10
$$

WIZ056-057-062-063-064-067-068-161400-
SOUTH CENTRAL WISCONSIN

CITY           SKY/WX    TMP DP  RH WIND       PRES   REMARKS
REEDSBURG      LGT SNOW   7   4  90 W5        30.49R WCI  -2
BARABOO/DELLS  CLOUDY     9   6  88 NW5       30.47R WCI   1
LONE ROCK      FAIR       2  -1  88 W9        30.52R WCI -13
MINERAL POINT  FLURRIES   5   5 100 NW7       30.46R WCI  -7
MADISON        LGT SNOW  11   7  84 NW12      30.45R FOG     WCI  -3
MIDDLETON      CLOUDY    13   9  85 NW8       30.46R WCI   2
WATERTOWN      CLOUDY    13  12  95 N7        30.43R WCI   3
MONROE         FAIR       9   5  85 NW8       30.43R WCI  -4
JANESVILLE     CLOUDY    16  12  86 NW12G17   30.43R WCI   3
$$

WIZ051-052-058>065-066-070>072-161400-
SOUTHEAST WISCONSIN

CITY           SKY/WX    TMP DP  RH WIND       PRES   REMARKS
MILWAUKEE      LGT SNOW  19  15  84 NW9       30.40R FOG     WCI   8
WAUKESHA       CLOUDY    14  10  85 NW7       30.41R WCI   4
MILWAUKEE/TIMM LGT SNOW  18  10  73 NW9       30.41R WCI   6
RACINE         LGT SNOW  19  16  88 NW9       30.41R VSB 3/4 WCI   8
BURLINGTON     FAIR      15  11  84 NW10      30.41R WCI   3
KENOSHA        LGT SNOW  18  14  84 NW10      30.39R FOG     WCI   6
FOND DU LAC    CLOUDY    13   8  81 N10       30.45R WCI   0
SHEBOYGAN      FAIR      13   8  81 N15       30.41S WCI  -3
WEST BEND      LGT SNOW  16  14  93 N8        30.41R WCI   5
JUNEAU         CLOUDY    14  11  88 N13       30.44R WCI   0
$$

LSZ147-162-161400-
LAKE SUPERIOR

STATION/POSITION TIME  TEMP    WIND        PRES    WAVE
                       AIR SEA DIR/SP/G            HT/PER
                 (UTC) (F)     (DEG/KT/KT) (MB)    (FT/S)
DEVILS ISLAND    1300   16     330/ 11/ 13 1037.7R
SAXON HARBOR     1240   22      20/ 11/ 14 1034.2S
$$

LMZ867-665-643>646-161400-
LAKE MICHIGAN

STATION/POSITION TIME  TEMP    WIND        PRES    WAVE
                       AIR SEA DIR/SP/G            HT/PER
                 (UTC) (F)     (DEG/KT/KT) (MB)    (FT/S)
NORTHPORT PIER   1240   10      CALM  /  2 1031.2R
KEWAUNEE LAKESHO 1254   10     320/  9/ 12 1029.7R
SHEBOYGAN LAKESH 1300   16     330/ 17/ 20 1031.1R
PORT WASHINGTON  1240   18     320/  7/ 12 1030.5R
MILWAUKEE LAKESH 1300   18     320/ 10/ 14   N/A
KENOSHA   LAKESH 1300   18     310/  8/ 11 1029.1
$$

TC  - TEMPERATURE IN CELSIUS
VSB - VISIBILITY IN STATUTE MILES
WCI - WIND CHILL INDEX
HX  - HEAT INDEX





USA.gov is the U.S. government's official web portal to all federal, state and local government web resources and services.